Weather History for Ortonville, MN

Change the Weather History Date:

Saturday, March 8, 2014

  Actual Average (KAQP) Record (KAQP)
Temperature  
Mean Temperature 19 °F -  
Max Temperature 30 °F 26 °F 44 °F (2004)
Min Temperature 8 °F 11 °F -4 °F (1997)
Degree Days  
Heating Degree Days 46    
Moisture  
Dew Point 11 °F    
Average Humidity 73    
Maximum Humidity 85    
Minimum Humidity 55    
Precipitation  
Precipitation 0.00 in - - ()
Sea Level Pressure  
Sea Level Pressure 30.25 in    
Wind  
Wind Speed 7 mph (West)    
Max Wind Speed 12 mph    
Max Gust Speed 16 mph    
Visibility 10 miles    
Events      
Averages and records for this station are not official NWS values.
T = Trace of Precipitation, MM = Missing Value Source: NWS Daily Summary

Daily Weather History Graph

Daily Weather History Graph

Search for Another Location

Airport:

Trip Planner

Search our weather history database for the weather conditions in past years. The results will help you decide how hot, cold, wet, or windy it might be!

Date:

Astronomy

Mar. 08, 2014 Rise Set
Actual Time 6:51 AM CST 6:22 PM CST
Civil Twilight 6:21 AM CST 6:51 PM CST
Nautical Twilight 5:47 AM CST 7:26 PM CST
Astronomical Twilight 5:13 AM CST 8:00 PM CST
Moon 11:15 AM CST (3/8) 1:38 AM CST (3/8)
Length of Visible Light 12h 30m
Length of Day
11h 31m
First Quarter, 52% of the Moon is Illuminated
Mar 8
First Quarter
Mar 16
Full
Mar 23
Last Quarter
Mar 30
New
Apr 7
First Quarter

Hourly Weather History & Observations

Time (CST) Temp. Windchill Dew Point Humidity Pressure Visibility Wind Dir Wind Speed Gust Speed Precip Events Conditions
12:13 AM 10.4 °F -4.1 °F 6.8 °F 85% 30.29 in 10.0 mi NNW 11.5 mph - N/A   Clear
12:34 AM 10.4 °F -4.1 °F 6.8 °F 85% 30.29 in 10.0 mi NNW 11.5 mph 16.1 mph N/A   Clear
12:54 AM 10.4 °F -3.3 °F 6.8 °F 85% 30.30 in 10.0 mi NNW 10.4 mph - N/A   Clear
1:13 AM 10.4 °F -3.3 °F 6.8 °F 85% 30.30 in 10.0 mi NNW 10.4 mph - N/A   Clear
1:34 AM 10.4 °F -2.4 °F 6.8 °F 85% 30.31 in 10.0 mi NNW 9.2 mph - N/A   Clear
1:54 AM 10.4 °F -2.4 °F 6.8 °F 85% 30.32 in 10.0 mi NNW 9.2 mph - N/A   Clear
2:13 AM 10.4 °F -2.4 °F 5.0 °F 79% 30.32 in 10.0 mi NNW 9.2 mph - N/A   Clear
2:34 AM 8.6 °F -4.7 °F 5.0 °F 85% 30.32 in 10.0 mi NNW 9.2 mph - N/A   Clear
2:54 AM 8.6 °F -5.5 °F 5.0 °F 85% 30.30 in 10.0 mi NNW 10.4 mph - N/A   Clear
3:13 AM 8.6 °F -4.7 °F 3.2 °F 79% 30.30 in 10.0 mi NNW 9.2 mph - N/A   Scattered Clouds
3:34 AM 8.6 °F -3.7 °F 5.0 °F 85% 30.30 in 10.0 mi NNW 8.1 mph - N/A   Mostly Cloudy
3:54 AM 10.4 °F -0.4 °F 5.0 °F 79% 30.29 in 10.0 mi NNW 6.9 mph - N/A   Overcast
4:13 AM 10.4 °F -0.4 °F 5.0 °F 79% 30.30 in 10.0 mi NW 6.9 mph - N/A   Overcast
4:34 AM 10.4 °F 2.2 °F 5.0 °F 79% 30.30 in 10.0 mi NW 4.6 mph - N/A   Mostly Cloudy
4:54 AM 10.4 °F -0.4 °F 5.0 °F 79% 30.32 in 10.0 mi NNW 6.9 mph - N/A   Scattered Clouds
5:13 AM 10.4 °F 0.8 °F 5.0 °F 79% 30.31 in 10.0 mi NW 5.8 mph - N/A   Mostly Cloudy
5:34 AM 10.4 °F -0.4 °F 5.0 °F 79% 30.32 in 10.0 mi NNW 6.9 mph - N/A   Overcast
5:54 AM 10.4 °F 0.8 °F 6.8 °F 85% 30.32 in 10.0 mi NW 5.8 mph - N/A   Overcast
6:13 AM 10.4 °F -0.4 °F 6.8 °F 85% 30.32 in 10.0 mi NNW 6.9 mph - N/A   Overcast
6:34 AM 10.4 °F 0.8 °F 6.8 °F 85% 30.32 in 10.0 mi NW 5.8 mph - N/A   Scattered Clouds
6:53 AM 10.4 °F 0.8 °F 6.8 °F 85% 30.32 in 10.0 mi NW 5.8 mph - N/A   Mostly Cloudy
7:14 AM 10.4 °F 0.8 °F 6.8 °F 85% 30.32 in 10.0 mi NNW 5.8 mph - N/A   Mostly Cloudy
7:34 AM 12.2 °F 4.3 °F 6.8 °F 79% 30.32 in 10.0 mi NNW 4.6 mph - N/A   Overcast
7:53 AM 12.2 °F 4.3 °F 6.8 °F 79% 30.33 in 10.0 mi NNW 4.6 mph - N/A   Overcast
8:14 AM 12.2 °F 2.9 °F 6.8 °F 79% 30.33 in 10.0 mi North 5.8 mph - N/A   Overcast
8:34 AM 12.2 °F 4.3 °F 6.8 °F 79% 30.34 in 10.0 mi NNW 4.6 mph - N/A   Overcast
8:53 AM 12.2 °F 6.1 °F 6.8 °F 79% 30.34 in 10.0 mi NW 3.5 mph - N/A   Overcast
9:14 AM 14.0 °F 8.2 °F 6.8 °F 73% 30.35 in 10.0 mi NNW 3.5 mph - N/A   Overcast
9:34 AM 14.0 °F 6.5 °F 6.8 °F 73% 30.34 in 10.0 mi WNW 4.6 mph - N/A   Overcast
9:53 AM 15.8 °F 10.2 °F 6.8 °F 68% 30.34 in 10.0 mi West 3.5 mph - N/A   Overcast
10:14 AM 15.8 °F 8.6 °F 8.6 °F 73% 30.34 in 10.0 mi WNW 4.6 mph - N/A   Overcast
10:34 AM 17.6 °F - 8.6 °F 68% 30.34 in 10.0 mi Calm Calm - N/A   Overcast
10:53 AM 17.6 °F 12.3 °F 10.4 °F 73% 30.34 in 10.0 mi NW 3.5 mph - N/A   Overcast
11:14 AM 19.4 °F 14.3 °F 10.4 °F 68% 30.33 in 10.0 mi West 3.5 mph - N/A   Overcast
11:34 AM 19.4 °F - 10.4 °F 68% 30.32 in 10.0 mi Calm Calm - N/A   Overcast
11:53 AM 19.4 °F 14.3 °F 10.4 °F 68% 30.32 in 10.0 mi West 3.5 mph - N/A   Overcast
12:14 PM 21.2 °F - 10.4 °F 63% 30.31 in 10.0 mi Calm Calm - N/A   Overcast
12:33 PM 23.0 °F 15.8 °F 12.2 °F 63% 30.30 in 10.0 mi SW 5.8 mph - N/A   Overcast
12:54 PM 23.0 °F 17.0 °F 12.2 °F 63% 30.30 in 10.0 mi WSW 4.6 mph - N/A   Overcast
1:14 PM 24.8 °F 19.1 °F 12.2 °F 59% 30.29 in 10.0 mi SSW 4.6 mph - N/A   Overcast
1:33 PM 24.8 °F 19.1 °F 12.2 °F 59% 30.29 in 10.0 mi West 4.6 mph - N/A   Overcast
1:54 PM 26.6 °F 22.6 °F 14.0 °F 59% 30.27 in 10.0 mi WSW 3.5 mph - N/A   Overcast
2:14 PM 26.6 °F 20.0 °F 15.8 °F 64% 30.26 in 10.0 mi West 5.8 mph - N/A   Overcast
2:33 PM 28.4 °F 22.2 °F 15.8 °F 59% 30.25 in 10.0 mi WSW 5.8 mph - N/A   Overcast
2:54 PM 28.4 °F 21.2 °F 14.0 °F 55% 30.25 in 10.0 mi WSW 6.9 mph - N/A   Overcast
3:14 PM 28.4 °F 21.2 °F 15.8 °F 59% 30.24 in 10.0 mi West 6.9 mph - N/A   Overcast
3:33 PM 28.4 °F 20.4 °F 15.8 °F 59% 30.24 in 10.0 mi SW 8.1 mph - N/A   Mostly Cloudy
3:54 PM 28.4 °F 20.4 °F 15.8 °F 59% 30.23 in 10.0 mi South 8.1 mph - N/A   Scattered Clouds
4:13 PM 30.2 °F 24.3 °F 15.8 °F 55% 30.23 in 10.0 mi West 5.8 mph - N/A   Clear
4:34 PM 30.2 °F 25.4 °F 15.8 °F 55% 30.23 in 10.0 mi SW 4.6 mph - N/A   Clear
4:54 PM 30.2 °F 23.4 °F 17.6 °F 60% 30.22 in 10.0 mi WSW 6.9 mph - N/A   Clear
5:13 PM 30.2 °F 24.3 °F 17.6 °F 60% 30.21 in 10.0 mi SW 5.8 mph - N/A   Clear
5:34 PM 28.4 °F 22.2 °F 17.6 °F 64% 30.21 in 10.0 mi SW 5.8 mph - N/A   Clear
5:54 PM 28.4 °F 23.3 °F 17.6 °F 64% 30.21 in 10.0 mi WSW 4.6 mph - N/A   Clear
6:13 PM 28.4 °F 23.3 °F 17.6 °F 64% 30.21 in 10.0 mi WSW 4.6 mph - N/A   Clear
6:34 PM 26.6 °F 22.6 °F 17.6 °F 69% 30.20 in 10.0 mi SW 3.5 mph - N/A   Scattered Clouds
6:54 PM 26.6 °F - 17.6 °F 69% 30.18 in 10.0 mi Calm Calm - N/A   Scattered Clouds
7:13 PM 26.6 °F 21.2 °F 17.6 °F 69% 30.18 in 10.0 mi South 4.6 mph - N/A   Scattered Clouds
7:34 PM 24.8 °F 17.9 °F 17.6 °F 74% 30.17 in 10.0 mi South 5.8 mph - N/A   Clear
7:54 PM 24.8 °F 20.5 °F 17.6 °F 74% 30.17 in 10.0 mi South 3.5 mph - N/A   Clear
8:13 PM 24.8 °F 17.9 °F 17.6 °F 74% 30.15 in 10.0 mi South 5.8 mph - N/A   Clear
8:34 PM 24.8 °F 16.9 °F 17.6 °F 74% 30.14 in 10.0 mi South 6.9 mph - N/A   Clear
8:54 PM 23.0 °F 13.9 °F 17.6 °F 80% 30.13 in 10.0 mi South 8.1 mph - N/A   Clear
9:13 PM 24.8 °F 16.1 °F 17.6 °F 74% 30.12 in 10.0 mi South 8.1 mph - N/A   Clear
9:34 PM 24.8 °F 16.1 °F 17.6 °F 74% 30.12 in 10.0 mi South 8.1 mph - N/A   Clear
9:54 PM 24.8 °F 16.1 °F 17.6 °F 74% 30.12 in 10.0 mi South 8.1 mph - N/A   Clear
10:13 PM 24.8 °F 16.1 °F 17.6 °F 74% 30.11 in 10.0 mi SSE 8.1 mph - N/A   Clear
10:34 PM 23.0 °F 13.9 °F 17.6 °F 80% 30.10 in 10.0 mi SSE 8.1 mph - N/A   Clear
10:53 PM 23.0 °F 13.1 °F 17.6 °F 80% 30.08 in 10.0 mi SSE 9.2 mph - N/A   Clear
11:14 PM 23.0 °F 13.9 °F 15.8 °F 74% 30.06 in 10.0 mi SSE 8.1 mph - N/A   Clear
11:34 PM 21.2 °F 12.6 °F 15.8 °F 80% 30.04 in 10.0 mi SSE 6.9 mph - N/A   Clear
11:53 PM 21.2 °F 11.7 °F 15.8 °F 80% 30.02 in 10.0 mi SSE 8.1 mph - N/A   Clear